Location: Irma
(52.9170°N, 111.2330°W)
Time: 14:51:52
(UTC-06:00)

Daily predictions for brighter satellites

Satellite Brightness Start Highest point End
(mag) Time Altitude Azimuth Time Altitude Azimuth Time Altitude Azimuth
Meteor 2-2 Rocket 4.4 22:37:13 10° NNW 22:43:00 87° WSW 22:48:52 10° S
Cosmos 1500 Rocket 4.4 22:39:48 10° SSE 22:43:50 34° E 22:47:52 10° NNE
Meteor 1-21 Rocket 4.4 22:39:20 10° SSW 22:45:00 84° WNW 22:50:37 10° NNE
USA 234 3.7 22:39:27 10° ENE 22:45:30 38° SE 22:51:31 10° SSW
Meteor 2-10 4.3 22:40:46 10° NNW 22:46:21 87° ENE 22:52:04 10° SSE
Landsat 7 3.9 22:43:55 10° SSE 22:48:41 79° ENE 22:53:29 10° NNW
Cosmos 2016 Rocket 4.3 22:42:38 10° NNW 22:48:54 70° W 22:55:03 10° S
ERS-1 Rocket 4.4 22:45:16 10° SSW 22:49:51 35° W 22:54:30 10° NNW
Cosmos 1328 4.1 22:46:16 10° S 22:50:12 52° E 22:54:09 10° NNE
Cosmos 2263 Rocket 3.3 22:47:20 10° SSE 22:51:48 25° ESE 22:56:18 10° NE
CARTOSAT-1 3.7 22:50:05 10° SSE 22:54:21 65° ENE 22:58:39 10° N
EO 1 Delta rocket 4.0 22:51:35 10° S 22:56:14 75° W 23:01:00 10° NNW
ATLAS 5 CENTAUR R/B 1.9 22:52:37 10° SW 22:57:26 89° SE 23:02:47 10° NE
H-2A R/B 2.4 22:52:08 10° S 22:57:29 70° WSW 23:02:57 10° NNW
Cosmos 1766 Rocket 3.9 22:55:53 10° SSW 23:00:12 69° WNW 23:04:35 10° N
Cosmos 1328 Rocket 3.8 22:56:26 10° NNW 23:00:47 67° W 23:05:03 10° S
Terra 1.9 22:58:52 10° SSE 23:03:37 79° ENE 23:08:24 10° NNW
Cosmos 1515 Rocket 3.6 23:01:16 10° NNW 23:05:39 80° W 23:09:58 10° S
Cosmos 2228 Rocket 3.6 23:04:37 10° NNW 23:09:11 62° W 23:13:42 10° S
Cosmos 1151 Rocket 3.1 23:05:35 10° N 23:10:01 89° ESE 23:14:24 10° S
Cosmos 540 Rocket 3.8 23:05:45 10° NNW 23:10:54 62° ENE 23:15:54 10° SE
Cosmos 2233 Rocket 4.0 23:07:31 10° N 23:13:48 87° ENE 23:20:00 10° S
Cosmos 1455 2.7 23:10:25 10° N 23:14:12 48° ENE 23:17:40 12° SSE
H-2A R/B 2.0 23:11:18 10° SSE 23:15:36 81° ENE 23:19:50 10° NNW
Cosmos 1743 Rocket 3.5 23:12:04 10° S 23:16:24 86° E 23:20:46 10° NNE
ERBS 3.9 23:15:11 10° W 23:17:55 23° SW 23:20:28 11° S
Cosmos 2084 3.4 23:17:18 10° SW 23:21:11 74° NW 23:24:59 10° NE
IGS 5A 3.6 23:17:43 10° S 23:21:53 76° WSW 23:26:04 10° NNW
Cosmos 304 Rocket 3.8 23:17:08 10° NNW 23:21:59 82° ENE 23:26:24 12° SSE
Cosmos 1356 3.6 23:18:42 10° S 23:22:06 54° E 23:25:33 10° NNE
Cosmos 2084 Rocket 3.9 23:19:01 10° NW 23:22:45 48° NE 23:26:29 10° ESE
CZ-2C R/B 4.5 23:19:38 10° ESE 23:24:41 32° ENE 23:29:36 10° N
Cosmos 1943 3.7 23:22:21 10° NW 23:27:50 53° WSW 23:33:10 11° S
DMSP B5D2-2 4.1 23:22:44 10° NNE 23:28:01 84° ESE 23:33:14 10° SSW
CZ-4C R/B 3.9 23:25:44 12° SE 23:29:33 56° ENE 23:33:55 10° N
Spot 4 3.9 23:26:23 12° SSE 23:30:53 76° ENE 23:35:47 10° NNW
BREEZE-M DEB (TANK) 2.7 23:30:30 10° WSW 23:33:10 56° S 23:41:36 10° E
Cosmos 1354 Rocket 4.5 23:31:43 10° S 23:36:36 43° ESE 23:41:32 10° NE
CZ-3B DEB 4.3 23:26:09 10° W 23:37:32 82° N 23:50:45 10° E
SL-19 R/B 3.5 23:42:05 17° SSE 23:44:08 74° ENE 23:47:08 10° NNW
Cosmos 1703 3.3 23:42:24 11° S 23:46:14 81° E 23:50:15 10° NNE
Cosmos 841 Rocket 4.4 23:43:02 10° NW 23:47:56 40° WSW 23:52:41 10° S
Cosmos 1486 Rocket 4.0 23:43:17 10° SSW 23:48:35 89° ESE 23:53:57 10° NNE
PSLV R/B 3.5 23:46:56 15° S 23:49:07 51° W 23:51:56 10° NNW
Cosmos 220 Rocket 4.4 23:46:04 10° SW 23:50:28 68° WNW 23:54:51 10° NNE
